Location: Saluda
(35.2377°N, 82.3468°W)
Time: 17:01:29
(UTC+00:00)

Explorer 11/Cluster Stage 4 - Pass Details

Date: 03 October 2022
Orbit: 466 x 1247 km, 28.8° (Epoch: 08 December)

Event Time Altitude Azimuth Distance (km) Brightness Sun altitude
Rises 19:00:02 0° 261° (W) 4,099 10.7 43.9°
Reaches altitude 10° 19:03:09 10° 257° (WSW) 3,064 10.3 43.5°
Maximum altitude 19:10:26 50° 184° (S) 1,286 9.1 42.6°
Drops below altitude 10° 19:16:30 10° 111° (ESE) 2,557 9.1 41.8°
Sets 19:18:54 0° 106° (ESE) 3,375 9.6 41.5°
